Simultaneous Nadir Overpasses (SNOs) Predictions

Prediction of SNOs between AQUA and NPP Satellite Orbit:

Table of predicted SNOs for the next 14.0 days since TLE Epoch: 9/2/2023
Index Date (AQUA) Time (AQUA) Lat,Lon (AQUA) SZA (AQUA ) Date (NPP) Time (NPP) Lat,Lon (NPP) SZA (NPP ) Distance(km) Time Diff (sec)
1 09/04/2023 09:38:18 80.76, -53.27 82.65 09/04/2023 09:37:15 80.76, -53.31 82.70 0.75 63
2 09/04/2023 10:27:40 -80.83, 115.30 97.49 09/04/2023 10:27:57 -80.83, 115.19 97.49 1.92 17
3 09/07/2023 00:12:49 80.84, 89.16 83.40 09/07/2023 00:12:34 80.85, 89.33 83.38 3.09 15
4 09/07/2023 01:02:12 -80.89,-102.60 96.69 09/07/2023 01:03:17 -80.89,-102.48 96.75 2.15 65
5 09/09/2023 13:58:00 -80.80, 62.41 95.62 09/09/2023 13:57:15 -80.80, 62.40 95.58 0.24 45
6 09/09/2023 14:47:21 80.87,-129.06 84.27 09/09/2023 14:47:56 80.87,-129.12 84.25 1.00 35
7 09/12/2023 03:43:47 79.49, 23.84 87.48 09/12/2023 03:42:34 79.69, 22.75 87.69 31.30 73
8 09/12/2023 04:32:29 -80.86,-155.43 94.80 09/12/2023 04:32:34 -80.86,-155.37 94.81 1.02 5
9 09/14/2023 18:17:36 80.85, 178.16 86.16 09/14/2023 18:17:12 80.85, 178.22 86.17 1.11 24



Historial Predications of SNOs between AQUA and NPP
